Snowfall_Accumulation
0.0 0.0 0.0 0.0 0.0 0.0 0.0 0.0 0.0 0.0 0.0 0.0 0.0 0.0 0.0 0.0 0.0 0.0 0.0 0.0 0.0 0.0 0.0 0.0 0.0 0.0 0.0 0.0 0.0 0.0 0.0 0.0 0.1 0.0 0.0 0.0 0.0 0.0 0.0 0.0 0.0 0.0 0.0
0.0 0.0 0.0 0.0 0.0 0.0 0.0 0.0 0.0 0.0 0.0 0.0 0.0 0.0 0.0 0.0 0.0 0.0 0.0 0.0 0.0 0.0 0.0 0.0 0.0 0.0 0.0 0.0 0.0 0.0 0.0 0.0 0.0 0.0 0.0 0.0 0.0 0.0 0.0 0.0 0.0 0.0 0.0
0.0 0.0 0.0 0.0 0.0 0.0 0.0 0.0 0.0 0.0 0.0 0.0 0.0 0.0 0.0 0.0 0.0 0.0 0.0 0.0 0.0 0.0 0.0 0.0 0.0 0.0 0.0 0.0 0.0 0.0 0.0 0.0 0.0 0.2 0.1 0.0 0.0 0.0 0.0 0.0 0.0 0.0 0.0
0.0 0.0 0.0 0.0 0.0 0.0 0.0 0.0 0.0 0.0 0.0 0.0 0.0 0.0 0.0 0.0 0.0 0.0 0.0 0.0 0.0 0.0 0.0 0.0 0.0 0.0 0.0 0.0 0.0 0.0 0.0 0.0 0.0 0.1 0.1 0.1 0.0 0.0 0.0 0.1 0.0 0.0 0.0
0.0 0.0 0.0 0.0 0.0 0.0 0.0 0.0 0.0 0.0 0.0 0.0 0.0 0.0 0.0 0.0 0.0 0.0 0.0 0.0 0.0 0.0 0.0 0.0 0.0 0.0 0.0 0.0 0.0 0.0 0.0 0.1 0.3 0.4 0.3 0.2 0.1 0.0 0.1 0.3 0.1 0.0 0.0
0.0 0.0 0.0 0.0 0.0 0.0 0.0 0.0 0.0 0.0 0.0 0.0 0.0 0.0 0.0 0.0 0.0 0.0 0.0 0.0 0.0 0.0 0.0 0.0 0.0 0.0 0.0 0.0 0.0 0.0 0.1 0.5 1.0 0.8 0.6 0.6 0.2 0.3 0.3 0.3 0.3 0.6 0.7
0.0 0.0 0.0 0.0 0.0 0.0 0.0 0.0 0.0 0.0 0.0 0.1 0.0 0.0 0.0 0.0 0.0 0.0 0.0 0.0 0.0 0.0 0.0 0.0 0.0 0.0 0.0 0.0 0.0 0.0 0.1 0.0 0.6 1.4 2.2 1.2 0.7 0.3 0.7 1.6 1.3 1.6 1.4
0.0 0.0 0.0 0.0 0.0 0.0 0.0 0.0 0.0 0.0 0.0 0.0 0.0 0.0 0.0 0.0 0.0 0.0 0.0 0.0 0.0 0.0 0.0 0.0 0.0 0.0 0.0 0.1 0.7 0.8 0.2 0.1 0.1 0.8 0.7 1.0 1.2 0.7 0.3 0.4 1.3 1.2 0.3
0.0 0.0 0.0 0.0 0.0 0.0 0.0 0.0 0.0 0.0 0.0 0.0 0.0 0.0 0.0 0.0 0.0 0.0 0.0 0.0 0.0 0.0 0.0 0.0 0.0 0.1 0.2 0.6 1.4 1.8 0.7 0.2 0.5 0.1 0.3 0.3 0.2 0.1 0.2 2.1 3.2 4.1 3.3
0.0 0.0 0.0 0.0 0.0 0.0 0.0 0.0 0.0 0.0 0.0 0.0 0.0 0.0 0.0 0.0 0.0 0.0 0.0 0.1 0.2 0.1 0.1 0.0 0.1 0.1 1.2 1.3 3.2 2.5 2.5 0.5 0.1 0.6 0.3 0.2 0.2 1.2 1.2 2.5 3.8 7.6 5.4
2.7 2.0 0.0 0.0 0.0 0.0 0.0 0.0 0.0 0.0 0.0 0.0 0.0 0.0 0.0 0.0 0.1 0.0 0.0 0.1 0.7 0.7 0.3 0.2 0.2 2.2 1.7 1.2 1.2 2.3 2.6 2.0 1.6 3.7 3.3 2.5 3.9 3.9 3.7 4.2 3.9 6.1 8.6
6.7 7.4 2.9 0.0 1.3 0.0 0.0 0.0 0.0 0.0 0.0 0.0 0.1 0.1 0.0 0.1 0.1 0.1 0.1 0.0 0.3 1.9 1.2 1.3 2.3 0.8 1.2 0.5 1.0 3.3 4.1 5.2 7.0 9.9 10.4 10.0 11.5 10.4 8.3 6.9 6.0 5.5 4.3
6.8 8.9 5.0 6.2 2.1 2.0 0.1 0.1 0.0 0.0 0.0 0.0 0.0 0.1 0.0 0.0 0.1 0.2 0.1 0.2 0.2 1.2 2.3 3.4 2.6 4.5 3.6 6.2 7.7 13.6 13.1 17.1 20.0 20.8 19.3 17.3 13.8 9.9 6.2 5.0 3.4 2.1 1.6
5.4 6.4 8.8 6.5 8.3 8.5 3.5 4.9 2.0 1.9 0.6 0.6 0.1 0.1 0.1 0.1 0.1 0.1 1.4 1.3 2.4 3.4 8.5 14.8 16.5 24.5 23.3 26.1 26.3 25.5 24.4 22.4 19.5 16.9 12.8 9.2 6.6 5.3 5.5 4.4 6.0 4.1 4.2
2.3 2.5 3.8 6.2 8.1 9.3 13.3 15.9 16.5 16.8 6.1 7.0 7.4 4.2 4.9 3.5 4.2 12.6 15.5 10.1 18.7 15.5 14.9 23.3 23.3 21.5 19.7 17.5 14.6 11.6 9.3 6.9 6.2 4.6 4.5 3.5 2.3 3.0 3.1 2.2 3.0 3.2 4.9
1.0 1.4 2.4 3.0 4.8 6.9 9.8 12.7 13.7 18.1 18.0 22.1 17.9 23.7 26.4 21.6 22.1 18.0 18.9 19.8 17.7 16.9 16.7 15.1 12.4 10.4 8.2 5.6 6.1 2.5 1.9 2.7 1.7 3.6 3.5 2.3 2.9 3.4 4.3 3.1 3.6 4.4 4.5
0.5 0.4 2.2 3.0 3.8 6.0 6.5 8.7 12.1 23.2 26.3 30.3 30.2 29.5 29.6 31.2 27.9 29.8 30.1 27.8 25.3 19.1 21.4 16.9 15.8 11.7 10.0 7.6 6.5 4.5 5.1 3.7 4.1 6.0 6.1 6.9 6.2 5.7 5.9 5.9 5.7 3.8 3.3
0.1 3.5 8.6 13.2 15.6 16.5 17.2 20.9 22.1 23.6 23.8 26.2 25.2 23.5 21.7 21.4 20.9 21.2 22.1 20.1 24.9 23.3 22.7 21.5 21.3 20.2 19.0 17.2 13.2 12.4 10.8 7.5 6.6 6.4 5.7 5.2 5.7 5.3 5.0 4.8 5.8 6.4 5.3
6.6 8.8 10.4 10.5 9.9 8.5 8.1 9.9 10.8 11.4 13.4 14.5 13.6 12.0 12.6 11.5 10.0 9.7 8.8 11.0 15.1 16.9 19.0 17.8 18.9 18.2 17.7 17.1 17.0 16.5 16.1 14.9 12.8 12.2 11.0 10.2 9.9 9.1 7.5 6.8 6.1 4.9 4.0
8.0 8.2 6.9 6.8 7.3 6.7 5.7 5.0 5.2 4.4 4.6 4.9 6.2 7.9 6.2 4.0 3.5 4.6 5.6 8.1 9.2 9.9 11.9 12.7 13.4 13.0 12.8 12.2 12.1 12.4 12.1 11.7 11.4 11.2 10.4 9.6 8.3 8.2 8.2 7.4 6.7 6.2 4.1
9.0 8.5 6.1 5.0 4.3 3.7 2.9 2.6 2.3 2.6 2.5 1.7 2.0 1.2 1.4 2.5 3.8 4.5 5.1 5.7 6.1 6.7 7.8 8.3 8.7 8.6 8.5 8.2 7.3 7.0 6.8 7.1 6.8 6.6 6.8 6.3 5.9 6.7 4.8 5.3 4.8 4.0 2.7
5.3 4.4 3.4 3.4 2.3 2.0 1.5 1.1 1.0 1.4 1.0 1.4 1.9 0.9 2.6 3.0 2.7 2.7 2.6 3.2 3.1 3.2 4.3 5.4 6.1 6.1 6.0 6.7 6.5 6.1 5.2 4.7 4.8 4.8 4.2 3.7 3.7 3.7 4.0 3.5 3.0 3.5 2.5
3.2 2.9 2.1 1.9 1.6 0.9 1.2 0.5 1.7 1.7 1.8 1.4 1.4 2.1 1.4 2.0 2.0 1.8 1.8 2.0 1.4 1.1 0.9 2.8 2.7 2.3 2.4 3.6 4.4 5.3 5.4 4.1 3.6 3.7 4.5 3.3 2.9 2.8 3.1 3.3 2.8 3.6 2.9
1.4 1.6 1.4 0.8 1.1 0.5 1.2 1.3 1.5 3.0 3.9 2.9 1.9 1.5 2.0 2.2 2.1 2.2 1.4 0.5 0.3 0.5 0.8 1.3 1.8 1.9 1.1 0.9 2.3 2.7 2.9 3.1 3.6 4.0 5.6 4.7 2.9 2.3 3.3 3.2 2.9 2.9 2.8
1.0 1.2 1.5 1.4 2.0 2.7 3.3 3.6 2.8 1.4 2.3 2.5 2.0 1.6 1.0 1.3 1.1 1.8 1.5 1.0 0.6 1.1 1.3 1.0 0.6 0.8 0.7 0.9 1.4 1.4 1.2 2.5 3.9 4.1 4.5 3.7 2.9 1.3 3.2 3.2 2.8 3.4 2.4
1.2 1.7 1.6 1.7 1.9 3.0 3.2 3.0 2.3 1.5 1.4 1.5 1.9 1.5 1.4 0.9 0.7 0.8 0.6 0.5 0.5 1.0 0.6 0.5 0.7 0.6 0.6 0.9 0.9 1.5 1.3 1.5 2.6 3.7 5.1 4.8 3.4 2.3 3.0 3.5 3.1 4.0 2.3